User: anonymous   Login
Location: D�derode
(51.8092°N, 10.1065°E)
Time: 20:26:05
(UTC+00:00)
Language:

Meteor 1-11 Rocket - Orbit

View from above orbital plane
View from above orbital plane
View from above satellite
View from above satellite

Ground track
Ground track

The orbit data is extracted from the following two-line orbital elements,

1 05918U 72022B   21060.24226341 -.00000018  00000-0 -18583-4 0  9999
2 05918  81.2349  96.9543 0059606 124.2888 236.3944 14.05879505507846
Epoch (UTC): 01 March 2021 05:48:51
Eccentricity: 0.0059606
inclination: 81.2349°
perigee height: 830 km
apogee height: 917 km
right ascension of ascending node: 96.9543°
argument of perigee: 124.2888°
revolutions per day: 14.05879505
mean anomaly at epoch: 236.3944°
orbit number at epoch: 50784

The dashed part of the orbit path shows where the satellite is in the earth's shadow,  

DLR